[[{"header":{"parameterUnit":"m.s-1","parameterCategory":1,"la1":30.2991,"la2":30.254,"lo1":-89.0895,"lo2":-89.0444,"dy":0.0017,"dx":0.0017,"nx":28,"ny":28,"refTime":"2025-05-21T03:00:00:Z","depth":0,"parameterNumber":2,"parameterNumberName":"U-component_of_WINDS"},"data":[0,0,0,0,0,0,0,0,0,0,0,0,0,0,0,0,0,0,0,0,0,0,0,0,0,0,0,0,0,0,0,0,0,0,0,0,0,0,0,0,0,0,0,0,0,0,0,0,0,0,0,0,0,0,0,0,0,0,4.7773,4.7775,0,4.7948,4.795,4.7952,4.7929,4.7926,4.7923,4.792,4.81,4.8107,4.8115,0,0,0,0,0,0,0,0,0,0,0,0,0,4.7419,4.7425,4.7773,4.7775,4.7777,4.7947,4.795,4.7952,4.7929,4.7926,4.7922,4.7919,4.8098,4.8106,4.8115,0,0,0,0,0,0,0,0,0,0,0,0,0,4.7581,4.7427,4.7772,4.7786,4.7789,4.7947,4.795,4.7953,4.793,4.7926,4.7922,4.7918,4.8095,4.8106,4.8117,4.8272,0,0,4.8151,4.8156,0,0,0,0,0,0,0,0,4.7572,4.7594,4.7782,4.7786,4.7789,4.7912,4.7891,4.806,4.7931,4.7877,4.792,4.7915,4.8041,4.8056,4.8099,4.828,4.8288,4.8152,4.8159,4.8163,4.8166,0,0,0,0,0,0,0,4.7561,4.7586,4.7842,4.7785,4.7789,4.7784,4.7802,4.7923,4.7981,4.7881,4.788,4.7901,4.8042,4.8088,4.8103,4.829,4.8151,4.8161,4.8168,4.8173,4.8606,4.861,0,0,0,0,0,0,4.7546,4.7577,4.7836,4.7847,4.7668,4.7793,4.7814,4.7877,4.798,4.7991,4.7904,4.7899,4.8071,4.809,4.8109,4.8296,4.8163,4.8174,4.818,4.8601,4.8607,4.8612,0,0,0,0,0,0,4.7538,4.7569,4.7829,4.7712,4.7745,4.7804,4.7875,4.7883,4.7928,4.7997,4.8007,4.794,4.8068,4.8093,4.8231,4.8301,4.8179,4.8189,4.8595,4.8603,4.8609,4.8671,0,0,0,0,0,0,4.7528,4.7567,4.7626,4.7713,4.7751,4.7949,4.788,4.7889,4.7948,4.7943,4.8034,4.8045,4.8067,4.8214,4.8242,4.8315,4.8198,4.8589,4.8599,4.8607,4.8663,4.8679,4.8694,0,0,0,0,0,4.7516,4.7637,4.7629,4.7661,4.7827,4.7953,4.7974,4.7997,4.7954,4.8014,4.8058,4.8042,4.8289,4.8229,4.826,4.8337,4.8585,4.8596,4.8606,4.8656,4.8676,4.8693,0,0,0,0,0,0,4.7558,4.7649,4.7641,4.7795,4.7866,4.7949,4.8026,4.8018,4.8104,4.8095,4.812,4.8141,4.828,4.8322,4.8253,4.8491,4.8431,4.8449,4.8458,4.8478,4.8493,4.8479,4.8207,0,0,0,0,0,4.7585,4.7679,4.7754,4.7883,4.7919,4.7966,4.8022,4.8033,4.8108,4.8138,4.8192,4.8266,4.836,4.8421,4.8512,4.8669,4.8688,4.8737,4.8753,4.8765,4.8779,4.8863,4.8886,4.8647,4.8647,4.8647,0,0,4.7642,4.7703,4.7762,4.7893,4.7949,4.8046,4.7992,4.8097,4.8169,4.8155,4.8287,4.8329,4.8413,4.856,4.8628,4.86,4.8849,4.8779,4.8788,4.8796,4.8877,4.8899,4.8919,4.8655,4.8653,4.8652,0,0,4.7795,4.7852,4.7964,4.8021,4.8107,4.8138,4.8165,4.8249,4.8276,4.8409,4.84,4.8486,4.8648,4.8707,4.8758,4.8932,4.892,4.8961,4.9041,4.9123,4.9141,4.9158,4.9218,4.924,4.8976,4.8976,4.8976,0,4.7855,4.8001,4.8023,4.8129,4.8186,4.8176,4.829,4.8344,4.8456,4.8495,4.8462,4.8664,4.872,4.888,4.8922,4.8965,4.8995,4.8951,4.9137,4.9154,4.917,4.9228,4.925,4.898,4.898,4.8979,4.8979,0,4.8069,4.817,4.8251,4.8357,4.8424,4.8533,4.8571,4.8635,4.8641,4.8674,4.881,4.8876,4.8979,4.9018,4.9025,4.9179,4.9158,4.9131,4.9071,4.9197,4.9251,4.9273,4.8986,4.8985,4.8984,4.8983,0,0,4.8254,4.8371,4.84,4.8447,4.8541,4.8619,4.8727,4.8827,4.8881,4.8959,4.9049,4.9186,4.916,4.9219,4.9232,4.9304,4.9435,4.9267,4.927,4.9295,4.9606,4.9625,4.965,4.9428,4.9432,4.9436,4.9599,0,4.8415,4.8606,4.8628,4.8798,4.8891,4.8883,4.8977,4.9044,4.9078,4.9162,4.9199,4.9295,4.9255,4.929,4.9361,4.9404,4.9497,4.9393,4.9511,4.9515,4.9489,4.9679,4.97,4.9851,4.962,4.9624,4.9627,0,4.8628,4.871,4.8889,4.8968,4.9008,4.9092,4.9184,4.9265,4.934,4.936,4.9424,4.9428,4.9538,4.9475,4.9627,4.9555,4.9605,4.9633,4.9639,4.965,4.9577,4.9693,4.9899,4.9921,4.9661,4.9658,4.9656,0,4.8743,4.8898,4.9024,4.9066,4.9162,4.922,4.9263,4.9335,4.9393,4.9474,4.9511,4.9604,4.9655,4.9727,4.9755,4.9706,4.9905,4.9844,4.9923,4.9922,4.9964,4.9961,5.0179,4.9999,4.9999,4.9998,4.9998,0,4.8919,4.9029,4.9077,4.9155,4.9276,4.9301,4.942,4.946,4.9524,4.9608,4.9608,4.9687,4.972,4.9805,4.9828,4.9949,4.9972,4.999,4.9995,4.999,4.9987,5.0021,5.0011,5.0005,5.0003,5.0002,5.0001,0,4.9068,4.9105,4.9241,4.9321,4.9343,4.9429,4.9496,4.9571,4.9604,4.9711,4.9737,4.9789,4.9888,4.9923,5.0045,5.006,5.02,5.0196,5.0174,5.0174,5.0251,5.0242,5.0498,5.0531,5.0331,5.0333,5.0334,0,4.9177,4.9261,4.9348,4.9405,4.9449,4.9541,4.9599,4.9626,4.9687,4.9779,4.9842,4.994,5.002,5.0179,5.0227,5.0319,5.0317,5.04,5.0331,5.0322,5.0316,5.0309,5.0317,5.0412,5.0414,5.0416,5.0418,0,4.9367,4.9381,4.9465,4.9556,4.9626,4.97,4.977,4.9817,4.9854,4.9922,5.0023,5.0085,5.0208,5.0305,5.0399,5.0442,5.0436,5.0439,5.0462,5.0456,5.0439,5.0447,5.0207,5.0433,5.0431,5.043,5.0429,5.0429,4.9498,4.9571,4.9643,4.9737,4.9793,4.9859,4.9932,4.9974,5.0058,5.016,5.017,5.0279,5.035,5.0475,5.0523,5.0608,5.0585,5.0618,5.0626,5.0634,5.0638,5.0427,5.0625,5.0625,5.0624,5.0624,5.0624,0,4.9686,4.9732,4.9818,4.9916,4.999,4.9977,5.0055,5.0117,5.0212,5.0279,5.0357,5.0472,5.0566,5.0621,5.0715,5.0772,5.0771,5.0795,5.079,5.08,5.0655,5.0625,5.0794,5.0794,5.0794,5.0794,5.0794,5.0794,4.9792,4.9915,4.9937,5.0086,5.0131,5.0236,5.0281,5.0341,5.0395,5.0523,5.0601,5.0636,5.0698,5.0796,5.0881,5.0894,5.0928,5.0954,5.0965,5.0828,5.0811,5.0794,5.0765,5.0962,5.0962,5.1103,5.1104,5.1105]},{"header":{"parameterUnit":"m.s-1","parameterCategory":1,"la1":30.2991,"la2":30.254,"lo1":-89.0895,"lo2":-89.0444,"dy":0.0017,"dx":0.0017,"nx":28,"ny":28,"refTime":"2025-05-21T03:00:00:Z","depth":0,"parameterNumber":3,"parameterNumberName":"V-component_of_WINDS"},"data":[0,0,0,0,0,0,0,0,0,0,0,0,0,0,0,0,0,0,0,0,0,0,0,0,0,0,0,0,0,0,0,0,0,0,0,0,0,0,0,0,0,0,0,0,0,0,0,0,0,0,0,0,0,0,0,0,0,0,1.766,1.766,0,1.7717,1.7717,1.7718,1.7709,1.7708,1.7707,1.7706,1.7765,1.7768,1.777,0,0,0,0,0,0,0,0,0,0,0,0,0,1.7542,1.7545,1.7659,1.766,1.7661,1.7717,1.7717,1.7718,1.7709,1.7707,1.7706,1.7705,1.7764,1.7767,1.777,0,0,0,0,0,0,0,0,0,0,0,0,0,1.7596,1.7545,1.7659,1.7663,1.7664,1.7716,1.7717,1.7718,1.7709,1.7707,1.7706,1.7705,1.7763,1.7767,1.7771,1.7824,0,0,1.7782,1.7784,0,0,0,0,0,0,0,0,1.7593,1.76,1.7662,1.7663,1.7664,1.7704,1.7698,1.7754,1.7709,1.7692,1.7706,1.7704,1.7746,1.7751,1.7765,1.7827,1.7829,1.7783,1.7785,1.7787,1.7788,0,0,0,0,0,0,0,1.7589,1.7598,1.7682,1.7663,1.7664,1.7662,1.7668,1.7709,1.7727,1.7693,1.7693,1.77,1.7746,1.7762,1.7767,1.783,1.7783,1.7786,1.7788,1.779,1.7937,1.7939,0,0,0,0,0,0,1.7584,1.7595,1.768,1.7684,1.7624,1.7665,1.7672,1.7693,1.7726,1.773,1.7701,1.7699,1.7756,1.7762,1.7769,1.7832,1.7787,1.779,1.7792,1.7935,1.7937,1.7939,0,0,0,0,0,0,1.7582,1.7592,1.7678,1.7639,1.765,1.7669,1.7692,1.7695,1.771,1.7732,1.7735,1.7713,1.7755,1.7763,1.781,1.7834,1.7792,1.7795,1.7934,1.7936,1.7938,1.7961,0,0,0,0,0,0,1.7578,1.7591,1.7612,1.764,1.7652,1.7718,1.7694,1.7697,1.7716,1.7714,1.7744,1.7748,1.7754,1.7804,1.7814,1.7839,1.7798,1.7931,1.7935,1.7938,1.7958,1.7964,1.7969,0,0,0,0,0,1.7574,1.7616,1.7613,1.7623,1.7678,1.772,1.7727,1.7734,1.7718,1.7739,1.7753,1.7747,1.783,1.7809,1.782,1.7846,1.793,1.7934,1.7937,1.7956,1.7963,1.7969,0,0,0,0,0,0,1.7591,1.762,1.7616,1.7668,1.7692,1.7718,1.7744,1.7741,1.777,1.7767,1.7774,1.7781,1.7828,1.7842,1.7818,1.7899,1.7878,1.7884,1.7888,1.7895,1.79,1.7896,1.7801,0,0,0,0,0,1.7601,1.7632,1.7656,1.7699,1.7711,1.7726,1.7744,1.7747,1.7772,1.7782,1.7799,1.7824,1.7855,1.7876,1.7906,1.796,1.7966,1.7983,1.7989,1.7993,1.7998,1.8026,1.8034,1.7951,1.7951,1.7951,0,0,1.7621,1.7641,1.766,1.7703,1.7722,1.7754,1.7734,1.777,1.7794,1.7787,1.7832,1.7846,1.7873,1.7923,1.7946,1.7936,1.8022,1.7998,1.8001,1.8004,1.8031,1.8039,1.8046,1.7954,1.7954,1.7953,0,0,1.7675,1.7693,1.7731,1.775,1.7777,1.7787,1.7796,1.7823,1.7831,1.7876,1.7872,1.7901,1.7955,1.7975,1.7992,1.8052,1.8047,1.8061,1.8089,1.8117,1.8124,1.8129,1.815,1.8158,1.8066,1.8066,1.8066,0,1.7697,1.7746,1.7751,1.7787,1.7806,1.78,1.7839,1.7857,1.7893,1.7906,1.7894,1.7962,1.798,1.8034,1.8049,1.8063,1.8073,1.8058,1.8122,1.8128,1.8134,1.8154,1.8161,1.8068,1.8068,1.8068,1.8067,0,1.7771,1.7805,1.7832,1.7867,1.7888,1.7925,1.7936,1.7958,1.7959,1.7969,1.8014,1.8036,1.807,1.8083,1.8085,1.8137,1.813,1.812,1.8099,1.8143,1.8162,1.8169,1.807,1.807,1.8069,1.8069,0,0,1.7838,1.7874,1.7884,1.7899,1.7929,1.7955,1.7991,1.8024,1.8042,1.8068,1.8098,1.8143,1.8134,1.8153,1.8157,1.8181,1.8227,1.8168,1.8169,1.8178,1.8285,1.8292,1.8301,1.8223,1.8225,1.8226,1.8283,0,1.7894,1.7958,1.7963,1.8021,1.8051,1.8047,1.8078,1.81,1.811,1.8138,1.815,1.8182,1.8167,1.8179,1.8203,1.8216,1.8248,1.8212,1.8252,1.8253,1.8245,1.8311,1.8319,1.8371,1.829,1.8291,1.8292,0,1.7968,1.7995,1.8055,1.8079,1.8093,1.8121,1.8151,1.8178,1.8202,1.8208,1.8229,1.8229,1.8266,1.8243,1.8294,1.8269,1.8286,1.8295,1.8297,1.8301,1.8275,1.8316,1.8388,1.8396,1.8304,1.8303,1.8302,0,1.801,1.8061,1.8103,1.8116,1.8146,1.8166,1.818,1.8202,1.8221,1.8248,1.826,1.8291,1.8307,1.8331,1.8339,1.8322,1.8389,1.8368,1.8395,1.8395,1.841,1.8409,1.8485,1.8421,1.8421,1.842,1.842,0,1.8072,1.8109,1.8122,1.8148,1.8189,1.8195,1.8236,1.8248,1.8268,1.8296,1.8294,1.8321,1.833,1.8358,1.8365,1.8405,1.8413,1.8419,1.842,1.8419,1.8418,1.843,1.8426,1.8423,1.8422,1.8422,1.8421,0,1.8126,1.8136,1.8182,1.8206,1.8213,1.8242,1.8263,1.8288,1.8298,1.8333,1.8342,1.8357,1.839,1.84,1.844,1.8445,1.8492,1.849,1.8484,1.8484,1.8511,1.8508,1.8597,1.8609,1.8537,1.8538,1.8538,0,1.8164,1.8193,1.822,1.8238,1.8252,1.8282,1.8302,1.8308,1.8328,1.8358,1.8379,1.8411,1.8437,1.849,1.8505,1.8535,1.8534,1.8563,1.8538,1.8536,1.8533,1.8532,1.8534,1.8567,1.8568,1.8569,1.8569,0,1.8232,1.8235,1.8263,1.8293,1.8315,1.8339,1.8362,1.8377,1.8387,1.841,1.8443,1.8463,1.8503,1.8535,1.8566,1.8579,1.8576,1.8577,1.8585,1.8584,1.8578,1.8581,1.8496,1.8575,1.8574,1.8574,1.8573,1.8573,1.8279,1.8304,1.8326,1.8357,1.8375,1.8396,1.842,1.8432,1.846,1.8493,1.8495,1.8531,1.8554,1.8594,1.8609,1.8637,1.8629,1.8641,1.8643,1.8646,1.8648,1.8574,1.8643,1.8643,1.8643,1.8643,1.8643,0,1.8346,1.836,1.8388,1.842,1.8444,1.8438,1.8463,1.8483,1.8514,1.8536,1.8561,1.8599,1.863,1.8647,1.8677,1.8696,1.8695,1.8704,1.8702,1.8706,1.8654,1.8644,1.8704,1.8704,1.8704,1.8704,1.8704,1.8704,1.8384,1.8425,1.8431,1.848,1.8494,1.8529,1.8543,1.8562,1.8579,1.8621,1.8647,1.8657,1.8677,1.8708,1.8736,1.874,1.8751,1.8761,1.8764,1.8716,1.8709,1.8703,1.8694,1.8763,1.8763,1.8813,1.8814,1.8814]}]]